Location: Joffre
(52.3362°N, 113.5373°W)
Time: 12:20:06
(UTC+00:00)

N. Korean satellite - Pass Details

Date: 04 December 2021
Orbit: 447 x 490 km, 97.3° (Epoch: 27 January)

Event Time Altitude Azimuth Distance (km) Brightness Sun altitude
Rises 14:11:36 0° 360° (N) 2,477 9.9 -10.7°
Reaches altitude 10° 14:14:10 10° 339° (NNW) 1,593 8.8 -10.3°
Maximum altitude 14:16:24 17° 298° (WNW) 1,232 7.9 -10.0°
Drops below altitude 10° 14:18:37 10° 257° (WSW) 1,579 8.7 -9.7°
Sets 14:21:09 0° 236° (SW) 2,445 9.8 -9.3°
